False Pass, AK

1:39 AM AKST on January 24, 2017 (GMT -0900)
False Pass

Weather History for PAKF - March, 2013

Change the Weather History Date:

Wednesday, March 6, 2013

  Actual Average (PACD) Record (PACD)
Temperature  
Mean Temperature 36 °F -  
Max Temperature 39 °F 35 °F 44 °F (1952)
Min Temperature 33 °F 25 °F -3 °F (1956)
Degree Days  
Heating Degree Days 29    
Moisture  
Dew Point 34 °F    
Average Humidity 90    
Maximum Humidity 100    
Minimum Humidity 55    
Precipitation  
Precipitation 0.74 in - - ()
Sea Level Pressure  
Sea Level Pressure 29.17 in    
Wind  
Wind Speed 13 mph (East)    
Max Wind Speed 33 mph    
Max Gust Speed 55 mph    
Visibility 5 miles    
Events Fog , Rain , Snow    
Averages and records for this station are not official NWS values.
T = Trace of Precipitation, MM = Missing Value Source: NWS Daily Summary

Daily Weather History Graph

Daily Weather History Graph

Search for Another Location

Airport or City:

Trip Planner

Search our weather history database for the weather conditions in past years. The results will help you decide how hot, cold, wet, or windy it might be!

Date:

Astronomy

Mar. 06, 2013 Rise Set
Actual Time 7:29 AM HST 6:40 PM HST
Civil Twilight 6:53 AM HST 7:16 PM HST
Nautical Twilight 6:12 AM HST 7:58 PM HST
Astronomical Twilight 5:29 AM HST 8:41 PM HST
Moon 4:31 AM HST (3/6) 12:55 PM HST (3/6)
Length of Visible Light 12h 22m
Length of Day
11h 10m
Waning Crescent, 28% of the Moon is Illuminated
Mar 6
Waning Crescent
Mar 11
New
Mar 19
First Quarter
Mar 27
Full
Apr 2
Last Quarter

Hourly Weather History & Observations

Time (HST) Temp. Windchill Dew Point Humidity Pressure Visibility Wind Dir Wind Speed Gust Speed Precip Events Conditions
12:01 AM 36.0 °F 28.0 °F 32.0 °F 86% 30.05 in 10.0 mi SE 11.5 mph 18.4 mph 0.00 in   Scattered Clouds
12:12 AM 35.6 °F 26.6 °F 32.0 °F 87% 29.76 in 10.0 mi SE 13.8 mph - 0.00 in   Mostly Cloudy
12:25 AM 35.6 °F 27.1 °F 32.0 °F 87% 29.76 in 10.0 mi SE 12.7 mph - 0.00 in   Mostly Cloudy
1:01 AM 36.0 °F 29.6 °F 32.0 °F 86% 30.03 in 10.0 mi SE 8.1 mph - 0.00 in   Mostly Cloudy
1:36 AM 35.6 °F 28.6 °F 33.8 °F 93% 29.74 in 10.0 mi SSE 9.2 mph - 0.00 in   Mostly Cloudy
1:59 AM 35.6 °F 28.6 °F 33.8 °F 93% 29.73 in 10.0 mi SE 9.2 mph - 0.00 in   Mostly Cloudy
2:01 AM 36.0 °F 29.6 °F 33.1 °F 89% 30.01 in 10.0 mi SSE 8.1 mph - 0.00 in   Mostly Cloudy
2:51 AM 35.6 °F 27.1 °F 33.8 °F 93% 29.72 in 9.0 mi ESE 12.7 mph 18.4 mph N/A   Mostly Cloudy
3:01 AM 35.6 °F 28.0 °F 33.8 °F 93% 29.72 in 10.0 mi SE 10.4 mph - N/A   Mostly Cloudy
3:33 AM 35.1 °F 32.2 °F 33.1 °F 92% 29.99 in 10.0 mi SSE 3.5 mph - N/A   Overcast
3:48 AM 35.6 °F 31.7 °F 33.8 °F 93% 29.70 in 10.0 mi SE 4.6 mph - N/A   Overcast
4:01 AM 35.6 °F 31.7 °F 33.8 °F 93% 29.70 in 10.0 mi Variable 4.6 mph - N/A   Overcast
4:42 AM 36.0 °F 29.0 °F 33.1 °F 89% 29.98 in 10.0 mi SE 9.2 mph - 0.00 in   Overcast
4:57 AM 35.6 °F 28.6 °F 33.8 °F 93% 29.68 in 10.0 mi SE 9.2 mph - N/A   Overcast
5:01 AM 35.6 °F 29.2 °F 33.8 °F 93% 29.68 in 9.0 mi SE 8.1 mph - 0.00 in   Overcast
5:09 AM 35.6 °F 26.6 °F 33.8 °F 93% 29.68 in 10.0 mi ESE 13.8 mph 19.6 mph 0.00 in Rain Light Rain
5:19 AM 35.6 °F 27.5 °F 33.8 °F 93% 29.68 in 10.0 mi ESE 11.5 mph - 0.00 in   Overcast
5:37 AM 35.6 °F 29.2 °F 32.0 °F 87% 29.66 in 10.0 mi SE 8.1 mph 17.3 mph 0.00 in Rain Light Rain
5:52 AM 35.6 °F 27.5 °F 32.0 °F 87% 29.65 in 10.0 mi ESE 11.5 mph 17.3 mph 0.00 in   Overcast
6:01 AM 36.0 °F 30.3 °F 33.1 °F 89% 29.93 in 10.0 mi ESE 6.9 mph - 0.00 in   Overcast
7:01 AM 35.1 °F 27.4 °F 33.1 °F 92% 29.90 in 10.0 mi East 10.4 mph - 0.00 in   Overcast
7:35 AM 35.6 °F 28.0 °F 32.0 °F 87% 29.60 in 6.0 mi East 10.4 mph 20.7 mph 0.00 in Snow Light Snow
7:44 AM 35.6 °F 27.5 °F 33.8 °F 93% 29.60 in 8.0 mi East 11.5 mph 18.4 mph 0.00 in Snow Light Snow
7:59 AM 35.6 °F 27.1 °F 32.0 °F 87% 29.58 in 10.0 mi East 12.7 mph 19.6 mph 0.00 in Rain Light Rain
8:01 AM 36.0 °F 26.3 °F 32.0 °F 86% 29.87 in 10.0 mi East 16.1 mph 19.6 mph 0.00 in Rain Light Rain
8:56 AM 35.6 °F 27.1 °F 33.8 °F 93% 29.55 in 9.0 mi ENE 12.7 mph 21.9 mph 0.00 in   Overcast
9:01 AM 36.0 °F 27.1 °F 33.1 °F 89% 29.83 in 8.0 mi ENE 13.8 mph 20.7 mph 0.00 in   Overcast
10:01 AM 36.0 °F 28.5 °F 30.9 °F 82% 29.74 in 10.0 mi NE 10.4 mph 32.2 mph N/A   Overcast
10:08 AM 35.6 °F 25.9 °F 30.2 °F 81% 29.45 in 10.0 mi NE 16.1 mph 29.9 mph N/A   Overcast
11:01 AM 36.0 °F 23.9 °F 30.0 °F 79% 29.65 in 10.0 mi NE 25.3 mph 36.8 mph N/A   Overcast
11:35 AM 37.4 °F 26.6 °F 26.6 °F 65% 29.30 in 10.0 mi NNE 21.9 mph 31.1 mph N/A   Overcast
12:01 PM 37.9 °F 27.6 °F 23.0 °F 55% 29.52 in 10.0 mi NNE 20.7 mph 26.5 mph N/A   Overcast
12:40 PM 35.6 °F 22.3 °F 26.6 °F 70% 29.17 in 1.8 mi NNE 31.1 mph 39.1 mph 0.00 in Rain Rain
12:44 PM 35.6 °F 22.5 °F 28.4 °F 75% 29.17 in 1.0 mi NNE 29.9 mph 38.0 mph 0.00 in Snow Light Snow
12:49 PM 33.8 °F 22.8 °F 28.4 °F 81% 29.16 in 0.8 mi NNE 18.4 mph 38.0 mph 0.00 in Snow Light Snow
1:01 PM 33.8 °F 21.6 °F 30.2 °F 87% 29.13 in 0.5 mi NNE 23.0 mph 32.2 mph 0.00 in Fog , Snow Snow
1:10 PM 33.8 °F 21.6 °F 30.2 °F 87% 29.11 in 0.2 mi NNE 23.0 mph 29.9 mph 0.00 in Fog , Snow Snow
1:57 PM 33.8 °F - 30.2 °F 87% 28.99 in 0.2 mi Calm Calm - 0.00 in Fog , Snow Heavy Snow
2:01 PM 33.8 °F - 30.2 °F 87% 28.98 in 0.2 mi Calm Calm - 0.00 in Fog , Snow Heavy Snow
2:13 PM 33.8 °F 27.0 °F 30.2 °F 87% 28.96 in 0.2 mi North 8.1 mph 16.1 mph 0.00 in Fog , Snow Light Snow
2:21 PM 33.8 °F 20.5 °F 32.0 °F 93% 28.94 in 1.0 mi NNE 27.6 mph 40.3 mph 0.00 in Snow Light Snow
3:11 PM 35.6 °F 23.0 °F 33.8 °F 93% 28.85 in 1.2 mi ENE 27.6 mph 44.9 mph 0.04 in Snow Light Snow
3:39 PM 35.6 °F 21.9 °F 33.8 °F 93% 28.78 in 1.0 mi NE 33.4 mph 49.5 mph 0.17 in Snow Light Snow
3:47 PM 35.6 °F 22.1 °F 33.8 °F 93% 28.77 in 1.2 mi NE 32.2 mph 55.2 mph 0.21 in Snow Light Snow
4:01 PM 35.1 °F 23.5 °F 33.1 °F 92% 29.03 in 1.5 mi NE 21.9 mph 38.0 mph 0.26 in Snow Light Snow
5:01 PM 37.0 °F 24.7 °F 35.1 °F 93% 28.94 in 1.2 mi NE 28.8 mph 51.8 mph 0.14 in   Overcast
5:25 PM 39.2 °F 28.7 °F 37.4 °F 93% 28.63 in 1.0 mi ENE 23.0 mph 44.9 mph 0.04 in Rain Light Rain
5:44 PM 39.2 °F 28.5 °F 37.4 °F 93% 28.63 in 1.5 mi ENE 24.2 mph 41.4 mph 0.05 in Rain Rain
5:59 PM 39.2 °F 27.0 °F 37.4 °F 93% 28.60 in 1.0 mi ENE 32.2 mph 43.7 mph 0.06 in Rain Rain
6:01 PM 39.2 °F 28.0 °F 37.4 °F 93% 28.60 in 0.8 mi ENE 26.5 mph 43.7 mph 0.06 in Rain Rain
6:18 PM 39.2 °F 28.0 °F 37.4 °F 93% 28.59 in 1.0 mi ENE 26.5 mph 33.4 mph 0.08 in Rain Light Rain
6:37 PM 39.2 °F 29.8 °F 37.4 °F 93% 28.58 in 1.2 mi East 18.4 mph 31.1 mph 0.10 in Rain Light Rain
6:49 PM 39.2 °F 28.7 °F 37.4 °F 93% 28.57 in 2.0 mi East 23.0 mph 28.8 mph 0.11 in Rain Light Rain
7:01 PM 37.9 °F 28.5 °F 37.0 °F 97% 28.84 in 2.5 mi East 17.3 mph - 0.12 in Rain Light Rain
7:08 PM 37.4 °F 29.3 °F 37.4 °F 100% 28.56 in 4.0 mi East 12.7 mph 23.0 mph 0.01 in Rain Light Rain
8:01 PM 37.9 °F 30.0 °F 37.0 °F 97% 28.80 in 4.0 mi ESE 12.7 mph - 0.04 in Rain Rain
8:08 PM 39.2 °F 31.2 °F 37.4 °F 93% 28.53 in 5.0 mi ESE 13.8 mph - 0.03 in Rain Rain
8:35 PM 39.2 °F 32.0 °F 37.4 °F 93% 28.51 in 5.0 mi SE 11.5 mph 17.3 mph 0.13 in Rain Light Rain
8:53 PM 39.2 °F 32.5 °F 37.4 °F 93% 28.50 in 4.0 mi SE 10.4 mph - 0.15 in Rain Light Rain
9:01 PM 39.0 °F 31.4 °F 37.0 °F 93% 28.78 in 4.0 mi SE 12.7 mph 17.3 mph 0.16 in Rain Rain
9:08 PM 39.2 °F 34.2 °F 37.4 °F 93% 28.50 in 2.5 mi SE 6.9 mph 17.3 mph 0.00 in Rain Light Rain
9:18 PM 39.2 °F 35.0 °F 37.4 °F 93% 28.50 in 1.8 mi Variable 5.8 mph - 0.01 in Rain Light Rain
9:44 PM 37.4 °F 33.8 °F 37.4 °F 100% 28.50 in 3.0 mi Variable 4.6 mph - 0.01 in Rain Light Rain
9:57 PM 37.4 °F 32.8 °F 37.4 °F 100% 28.49 in 2.0 mi Variable 5.8 mph - 0.02 in Rain Light Rain
10:01 PM 37.9 °F 32.1 °F 37.0 °F 97% 28.76 in 2.0 mi ESE 8.1 mph - 0.02 in Rain Light Rain
10:20 PM 39.2 °F 35.0 °F 37.4 °F 93% 28.48 in 1.8 mi Variable 5.8 mph - 0.00 in Rain Light Rain
10:31 PM 39.2 °F 35.9 °F 37.4 °F 93% 28.48 in 2.0 mi SSE 4.6 mph - 0.00 in Rain Light Rain
10:56 PM 37.4 °F 32.8 °F 37.4 °F 100% 28.47 in 4.0 mi Variable 5.8 mph - 0.00 in Rain Light Rain
11:01 PM 37.9 °F 35.5 °F 37.0 °F 97% 28.75 in 3.0 mi Variable 3.5 mph - 0.00 in Rain Light Rain
11:10 PM 37.4 °F 32.8 °F 37.4 °F 100% 28.47 in 2.0 mi South 5.8 mph - 0.01 in Rain Rain
11:23 PM 37.4 °F 32.8 °F 37.4 °F 100% 28.46 in 3.0 mi SW 5.8 mph - 0.02 in Rain Light Rain
11:59 PM 37.4 °F 33.8 °F 37.4 °F 100% 28.46 in 3.0 mi SSE 4.6 mph - 0.13 in Snow Light Snow